Regional Weather Roundup
Issued by NWS

Home | Current Version | Previous Version | Text Only | Print | Product List | Glossary On
Versions: 1 2 3 4 5 6 7 8 9 10 11 12 13 14 15 16 17 18 19 20 21 22 23 24 25 26 27 28 29 30 31 32 33 34 35 36 37 38 39 40 41 42 43 44 45 46 47 48 49 50
000
ASUS45 KTFX 300219
RWRMT
MONTANA HOURLY WEATHER ROUNDUP
NATIONAL WEATHER SERVICE GREAT FALLS MT
819 PM MDT SUN MAR 29 2015

NOTE: "FAIR" INDICATES FEW OR NO CLOUDS BELOW 12000 FEET WITH NO
SIGNIFICANT WEATHER AND/OR OBSTRUCTIONS TO VISIBILITY.

* THESE STATIONS ARE NOT UNDER NWS QUALITY CONTROL. THEY DO NOT
   REPORT WEATHER SUCH AS PRECIPITATION OR FOG.

MTZ001>007-043-300300-
WEST OF THE DIVIDE
CITY           SKY/WX    TMP DP  RH WIND       PRES   REMARKS
KALISPELL      CLOUDY    54  34  47 W7        30.12R
MISSOULA       PTCLDY    52  34  50 W6        30.17F
BUTTE          CLEAR     48  25  41 NW8       30.16R
MULLAN PASS    MOCLDY    37  30  76 W6        30.18S WCI  32
* ESSEX        N/A       49  32  52 SE6G11     N/A
* EUREKA APT   MOCLDY    54  34  47 SE8        N/A
* HAMILTON APT PTCLDY    54  28  37 NW2       30.17S
* LIBBY APT    MOCLDY    54  36  51 E3        30.12F
* LINCOLN      N/A       51  29  43 SW7G24     N/A
* LOOKOUT PASS N/A       45  34  65 VRB1G7     N/A
* POLSON       N/A       51  34  52 S2G9       N/A
* RONAN APT    MOCLDY    52  39  61 N/A        N/A
* SEELEY LAKE  N/A       49  30  48 W6G15      N/A
* THOMP F APT  CLOUDY    51  13  22 S5G14      N/A
$$

MTZ008-052>055-300300-
SOUTHWEST MONTANA
CITY           SKY/WX    TMP DP  RH WIND       PRES   REMARKS
BOZEMAN        CLOUDY    54  25  33 NW9       30.09R
DILLON         FAIR      54  21  27 W12       30.14R
* W YELLOWSTON CLEAR     44  17  34 SW4G12     N/A
* THREE FORKS  CLEAR     61  25  25 W7         N/A
* TWIN BRIDGES CLEAR     57  21  25 W5         N/A
* BOULDER HILL N/A       50  21  32 SW8        N/A
* HOMESTAKE PS N/A       46  23  40 NW12G20    N/A
* MONIDA PASS  N/A       45  15  30 SE11G17    N/A
* RAYNOLDS PAS N/A       43  27  53 S9         N/A
* WHITEHALL    N/A       60  23  24 NW11G18    N/A
* WISE RIVER   N/A       51  24  35 W12G25     N/A
$$

MTZ009>010-012-014-046-048-049-054-300300-
EAST SLOPES AND CENTRAL MONTANA
CITY           SKY/WX    TMP DP  RH WIND       PRES   REMARKS
CUT BANK       MOCLDY    48  28  46 SW21      29.97F
GREAT FALLS    CLOUDY    54  28  37 SW28G33   30.00F
HELENA         PTCLDY    55  27  34 W14G25    30.09S
MALMSTROM AFB  CLOUDY    55  28  35 SW18G28   30.01R
* CONRAD       MOCLDY    54  30  40 SW16G22    N/A
* DEARBORN     N/A       57  29  34 S12G20     N/A
* EAST GLACIER N/A       46  29  52 W8G14      N/A
* MONARCH      N/A       49  19  30 W26G35     N/A
* PENDROY      N/A       47  28  48 W14G22     N/A
* ROGERS PASS  N/A       45  27  49 E4G20      N/A
* SAINT MARY   N/A       47  28  48 S12G25     N/A
* WHITE SULPH  N/A       51  24  35 NW13G25    N/A
$$

MTZ011-013-016-021-035-040-045-047-050-051-300300-
NORTH CENTRAL MONTANA
CITY           SKY/WX    TMP DP  RH WIND       PRES   REMARKS
HAVRE          MOCLDY    55  30  39 W20       29.90F
LEWISTOWN      MOCLDY    54  27  35 W12       30.00S
* N BAR RANCH  CLEAR     48  25  41 CALM      30.03S
* CHINOOK      MOCLDY    57  30  36 W12G22    29.89F
* FORT BENTON  MOCLDY    55  28  35 SW8       29.98S
* MALTA APT    MOCLDY    55  34  45 N/A        N/A
* CHESTER      N/A       53  29  40 SW10G17    N/A
* DENTON       N/A       53  24  32 W10        N/A
* GEYSER       N/A       50  20  31 W9G14      N/A
* JUDITH GAP   N/A       51  17  26 SW14G19    N/A
* LOMA         N/A       58  28  32 SW17G23    N/A
$$

MTZ017>020-022>027-061-062-300300-
NORTHEAST MONTANA
CITY           SKY/WX    TMP DP  RH WIND       PRES   REMARKS
GLASGOW        CLEAR     52  30  43 SW6       29.90F
GLENDIVE       PTCLDY    46  30  54 W8        29.97S
JORDAN         PTCLDY    48  32  54 W3        29.95F
SIDNEY         MOCLDY    50  34  54 SW6       29.94S
WOLF POINT     PTCLDY    52  34  50 W7        29.92S
* BEAVER HILL  N/A       49  30  48 SW10       N/A
* CIRCLE       N/A       52  35  52 N/A        N/A
* LINDSAY DVD  N/A       50  29  44 SW9        N/A
* NAVAJO       N/A       47  33  58 W9         N/A
* PLENTYWOOD A PTCLDY    52  34  50 W7        29.89R
* POPLAR APT   MOCLDY    52  36  55 W5        29.93R
* SACO         N/A       51  32  48 S9         N/A
$$

MTZ028>042-056>058-300300-
SOUTHCENTRAL AND SOUTHEAST MONTANA
CITY           SKY/WX    TMP DP  RH WIND       PRES   REMARKS
BAKER          MOCLDY    48  30  50 W9        30.00S
BILLINGS       MOCLDY    57  19  23 NW5       30.02S
LIVINGSTON     PTCLDY    59  18  20 W24G29    30.05S
MILES CITY     PTCLDY    54  27  35 W6        29.98F
* BIG TIMBER A PTCLDY    54  19  25 E5        30.05R
* FORSYTH APT  CLEAR     50  27  41 SE6       29.99F
* LAUREL APT   PTCLDY    61  21  21 N/A        N/A
* ROUNDUP APT  MOCLDY    59  16  18 W17G25     N/A
* ALZADA       N/A       50  26  39 W2         N/A
* HYSHAM       N/A       53  17  24 S2         N/A
* LAME DEER    N/A       52  19  27 W4         N/A
* REED POINT   N/A       58  22  25 W1G6       N/A
* ROSCOE HILL  N/A       48  10  21 SE9        N/A
$$

REGIONAL REPORTS...DAKOTAS
CITY           SKY/WX    TMP DP  RH WIND       PRES   REMARKS
WILLISTON      MOCLDY    48  34  59 SW7       29.91S
DICKINSON      MOCLDY    45  28  51 W3        29.95S
BEACH          CLEAR     46  32  58 SW8       29.97F
CROSBY         PTCLDY    45  36  71 E6        29.89S
TIOGA          CLOUDY    43  34  71 SW6       29.93F
WATFORD CITY   N/A       48  32  54 W3        29.91F
BISMARCK       CLEAR     52  27  38 CALM      29.97S
GRAND FORKS    PTCLDY    41  30  65 W8        29.89R
FARGO          PTCLDY    45  28  51 W5        29.92R
BUFFALO SD     MOCLDY    52  27  38 W7        29.95F
RAPID CITY     MOCLDY    50  27  41 NE3       30.05S
$$

REGIONAL REPORTS...WYOMING/IDAHO/WASHINGTON
CITY           SKY/WX    TMP DP  RH WIND       PRES   REMARKS
GILLETTE       CLOUDY    43  28  56 S3        30.07S
SHERIDAN       PTCLDY    43  30  60 SW6       30.05S
CODY           CLEAR     55  10  16 W13G26    30.09R
YELLOWSTONE LA CLEAR     37  14  39 VRB3      30.27S
SALMON         PTCLDY    52  27  38 S5        30.14R
MULLAN PASS    MOCLDY    37  30  76 W6        30.18S WCI  32
SAND POINT     CLOUDY    52  43  72 SW3       30.12F
SPOKANE        CLOUDY    57  36  46 SW9       30.12F
$$

REGIONAL REPORTS...ALBERTA
CITY           SKY/WX    TMP DP  RH WIND       PRES   REMARKS
CALGARY        PTCLDY    52  28  40 W15G22    29.85R
LETHBRIDGE     MOCLDY    52  30  43 W24G35    29.95R
MEDICINE HAT   MOCLDY    54  36  51 SW14      29.82S
EDMONTON       MOCLDY    50  34  54 NW18G31   29.77R
WATERTON GATE  N/A       48  30  50 SW21G33    N/A
CARDSTON       N/A       50  32  50 W7G17      N/A
$$

REGIONAL REPORTS...SASKATCHEWAN
CITY           SKY/WX    TMP DP  RH WIND       PRES   REMARKS
SWIFT CURRENT  CLOUDY    48  34  59 SW12      29.79F
REGINA         MOCLDY    46  36  68 SE8       29.84F
VAL MARIE      N/A       46  32  58 W9         N/A
ASSINIBOIA     N/A       48  34  59 SW8        N/A
CORONACH       N/A       46  34  63 SW9        N/A

$$




USA.gov is the U.S. government's official web portal to all federal, state and local government web resources and services.